Weather History for KHBR - March, 2013

Change the Weather History Date:

Tuesday, March 12, 2013

  Actual Average Record
Temperature  
Mean Temperature 46 °F -  
Max Temperature 59 °F 57 °F 87 °F (2006)
Min Temperature 34 °F 34 °F 16 °F (1998)
Degree Days  
Heating Degree Days 20    
Moisture  
Dew Point 33 °F    
Average Humidity 61    
Maximum Humidity 85    
Minimum Humidity 45    
Precipitation  
Precipitation 0.00 in - - ()
Sea Level Pressure  
Sea Level Pressure 30.21 in    
Wind  
Wind Speed 10 mph (ENE)    
Max Wind Speed 20 mph    
Max Gust Speed -    
Visibility 10 miles    
Events      
Averages and records for this station are not official NWS values.
T = Trace of Precipitation, MM = Missing Value Source: NWS Daily Summary

Daily Weather History Graph

Daily Weather History Graph

Search for Another Location

Airport or City:

Trip Planner

Search our weather history database for the weather conditions in past years. The results will help you decide how hot, cold, wet, or windy it might be!

Date:

Astronomy

Mar. 12, 2013 Rise Set
Actual Time 7:50 AM CDT 7:41 PM CDT
Civil Twilight 7:25 AM CDT 8:06 PM CDT
Nautical Twilight 6:56 AM CDT 8:36 PM CDT
Astronomical Twilight 6:26 AM CDT 9:05 PM CDT
Moon 8:01 AM CDT (3/12) 8:53 PM CDT (3/12)
Length of Visible Light 12h 41m
Length of Day
11h 51m
New Moon, 1% of the Moon is Illuminated
Mar 12
New Moon
Mar 19
First Quarter
Mar 27
Full
Apr 2
Last Quarter
Apr 10
New

Hourly Weather History & Observations

Time (CDT) Temp. Windchill Dew Point Humidity Pressure Visibility Wind Dir Wind Speed Gust Speed Precip Events Conditions
12:53 AM 36.0 °F 31.1 °F 30.0 °F 79% 30.00 in 10.0 mi East 5.8 mph - N/A   Clear
1:53 AM 34.0 °F 28.0 °F 30.0 °F 85% 30.01 in 10.0 mi East 6.9 mph - N/A   Clear
2:53 AM 35.1 °F 27.4 °F 30.0 °F 82% 30.02 in 10.0 mi East 10.4 mph - N/A   Clear
3:53 AM 36.0 °F 28.0 °F 30.0 °F 79% 30.01 in 10.0 mi East 11.5 mph - N/A   Clear
4:53 AM 36.0 °F 27.5 °F 30.0 °F 79% 30.02 in 10.0 mi ENE 12.7 mph - N/A   Clear
5:53 AM 36.0 °F 26.0 °F 28.9 °F 76% 30.06 in 10.0 mi ENE 17.3 mph - N/A   Clear
6:53 AM 36.0 °F 27.5 °F 28.0 °F 73% 30.09 in 10.0 mi ENE 12.7 mph - N/A   Clear
7:53 AM 37.9 °F 27.9 °F 28.0 °F 68% 30.15 in 10.0 mi NE 19.6 mph - N/A   Clear
8:53 AM 41.0 °F 32.2 °F 27.0 °F 57% 30.20 in 10.0 mi ENE 18.4 mph - N/A   Clear
9:53 AM 46.0 °F 38.5 °F 26.1 °F 46% 30.23 in 10.0 mi ENE 19.6 mph - N/A   Clear
10:53 AM 51.1 °F - 30.9 °F 46% 30.25 in 10.0 mi ENE 13.8 mph - N/A   Clear
11:53 AM 52.0 °F - 34.0 °F 50% 30.27 in 10.0 mi ENE 12.7 mph - N/A   Clear
12:53 PM 55.0 °F - 36.0 °F 49% 30.28 in 10.0 mi ENE 12.7 mph - N/A   Clear
1:53 PM 55.9 °F - 37.0 °F 49% 30.28 in 10.0 mi NE 15.0 mph - N/A   Clear
2:53 PM 55.9 °F - 37.0 °F 49% 30.27 in 10.0 mi NE 10.4 mph - N/A   Clear
3:53 PM 57.9 °F - 37.0 °F 46% 30.26 in 10.0 mi ENE 11.5 mph - N/A   Partly Cloudy
4:53 PM 57.0 °F - 37.0 °F 47% 30.27 in 10.0 mi NNE 8.1 mph - N/A   Partly Cloudy
5:53 PM 57.0 °F - 36.0 °F 45% 30.28 in 10.0 mi North 9.2 mph - N/A   Partly Cloudy
6:53 PM 57.0 °F - 37.0 °F 47% 30.28 in 10.0 mi NE 4.6 mph - N/A   Clear
7:53 PM 51.1 °F - 35.1 °F 54% 30.31 in 10.0 mi Calm Calm - N/A   Clear
8:53 PM 48.9 °F - 35.1 °F 59% 30.33 in 10.0 mi Calm Calm - N/A   Clear
9:53 PM 48.0 °F - 36.0 °F 63% 30.34 in 10.0 mi SSE 3.5 mph - N/A   Clear
10:53 PM 41.0 °F 38.0 °F 34.0 °F 76% 30.36 in 10.0 mi North 4.6 mph - N/A   Clear
11:53 PM 43.0 °F 39.5 °F 34.0 °F 71% 30.36 in 10.0 mi NE 5.8 mph - N/A   Clear